Nantucket, MA

7:14 PM EDT on April 25, 2017 (GMT -0400)
Nantucket Memorial

Weather History for KACK - July, 2013

Change the Weather History Date:

Friday, July 5, 2013

  Actual Average Record
Temperature  
Mean Temperature 72 °F -  
Max Temperature 77 °F 71 °F 88 °F (1999)
Min Temperature 68 °F 58 °F 51 °F (1968)
Cooling Degree Days 8    
Growing Degree Days 22 (Base 50)    
Moisture  
Dew Point 68 °F    
Average Humidity 90    
Maximum Humidity 97    
Minimum Humidity 79    
Precipitation  
Precipitation 0.01 in - - ()
Sea Level Pressure  
Sea Level Pressure 30.16 in    
Wind  
Wind Speed 14 mph (WSW)    
Max Wind Speed 20 mph    
Max Gust Speed 25 mph    
Visibility 7 miles    
Events      
Averages and records for this station are not official NWS values.
T = Trace of Precipitation, MM = Missing Value Source: NWS Daily Summary

Daily Weather History Graph

Daily Weather History Graph

Search for Another Location

Airport or City:

Trip Planner

Search our weather history database for the weather conditions in past years. The results will help you decide how hot, cold, wet, or windy it might be!

Date:

Astronomy

Jul. 05, 2013 Rise Set
Actual Time 5:13 AM EDT 8:16 PM EDT
Civil Twilight 4:39 AM EDT 8:49 PM EDT
Nautical Twilight 3:57 AM EDT 9:32 PM EDT
Astronomical Twilight 3:07 AM EDT 10:22 PM EDT
Moon 3:10 AM EDT (7/5) 6:07 PM EDT (7/5)
Length of Visible Light 16h 09m
Length of Day
15h 02m
Waning Crescent, 6% of the Moon is Illuminated
Jul 5
Waning Crescent
Jul 8
New
Jul 15
First Quarter
Jul 22
Full
Jul 29
Last Quarter

Hourly Weather History & Observations

Time (EDT) Temp. Dew Point Humidity Pressure Visibility Wind Dir Wind Speed Gust Speed Precip Events Conditions
12:53 AM 69.1 °F 68.0 °F 96% 30.19 in 5.0 mi WSW 13.8 mph - N/A   Overcast
1:53 AM 69.1 °F 68.0 °F 96% 30.18 in 6.0 mi WSW 13.8 mph - N/A   Scattered Clouds
2:34 AM 69.8 °F 66.2 °F 88% 30.18 in 6.0 mi West 10.4 mph - N/A   Mostly Cloudy
2:53 AM 69.1 °F 66.9 °F 93% 30.18 in 7.0 mi West 11.5 mph - N/A   Overcast
3:26 AM 69.8 °F 66.2 °F 88% 30.17 in 7.0 mi WSW 15.0 mph - N/A   Scattered Clouds
3:45 AM 68.0 °F 66.2 °F 94% 30.18 in 6.0 mi WSW 12.7 mph - N/A   Mostly Cloudy
3:53 AM 68.0 °F 66.9 °F 96% 30.18 in 6.0 mi WSW 11.5 mph - N/A   Mostly Cloudy
4:22 AM 68.0 °F 66.2 °F 94% 30.18 in 7.0 mi WSW 13.8 mph - N/A   Scattered Clouds
4:53 AM 68.0 °F 66.9 °F 96% 30.19 in 7.0 mi WSW 12.7 mph - N/A   Clear
5:53 AM 68.0 °F 66.9 °F 96% 30.19 in 7.0 mi West 11.5 mph - N/A   Clear
6:53 AM 70.0 °F 66.9 °F 90% 30.20 in 8.0 mi WSW 11.5 mph - N/A   Clear
7:53 AM 72.0 °F 68.0 °F 87% 30.20 in 9.0 mi West 12.7 mph - 0.01 in   Partly Cloudy
8:53 AM 73.9 °F 69.1 °F 85% 30.20 in 10.0 mi WSW 16.1 mph - N/A   Clear
9:53 AM 73.9 °F 69.1 °F 85% 30.19 in 9.0 mi WSW 17.3 mph 25.3 mph N/A   Clear
10:53 AM 75.0 °F 69.1 °F 82% 30.19 in 10.0 mi WSW 15.0 mph 23.0 mph N/A   Clear
11:53 AM 75.9 °F 70.0 °F 82% 30.18 in 10.0 mi WSW 19.6 mph - N/A   Clear
12:53 PM 75.9 °F 70.0 °F 82% 30.17 in 10.0 mi WSW 17.3 mph 24.2 mph N/A   Clear
1:53 PM 75.9 °F 70.0 °F 82% 30.17 in 10.0 mi WSW 18.4 mph - N/A   Clear
2:53 PM 77.0 °F 70.0 °F 79% 30.16 in 10.0 mi WSW 18.4 mph - N/A   Clear
3:53 PM 73.9 °F 69.1 °F 85% 30.14 in 9.0 mi WSW 17.3 mph 25.3 mph N/A   Clear
4:53 PM 73.0 °F 69.1 °F 87% 30.13 in 9.0 mi SW 15.0 mph - N/A   Partly Cloudy
5:53 PM 73.0 °F 69.1 °F 87% 30.13 in 8.0 mi WSW 12.7 mph - N/A   Scattered Clouds
6:11 PM 71.6 °F 69.8 °F 94% 30.13 in 7.0 mi WSW 16.1 mph - N/A   Mostly Cloudy
6:53 PM 71.1 °F 68.0 °F 90% 30.13 in 6.0 mi SW 12.7 mph - N/A   Mostly Cloudy
7:09 PM 69.8 °F 68.0 °F 94% 30.12 in 5.0 mi SW 11.5 mph - N/A   Scattered Clouds
7:53 PM 69.1 °F 66.9 °F 93% 30.12 in 4.0 mi SW 10.4 mph - N/A   Mostly Cloudy
8:13 PM 68.0 °F 66.2 °F 94% 30.11 in 3.0 mi SW 9.2 mph - N/A   Scattered Clouds
8:53 PM 68.0 °F 66.9 °F 96% 30.12 in 6.0 mi SW 11.5 mph - N/A   Clear
9:53 PM 70.0 °F 68.0 °F 93% 30.12 in 6.0 mi WSW 15.0 mph - N/A   Clear
10:53 PM 70.0 °F 68.0 °F 93% 30.12 in 7.0 mi WSW 17.3 mph - N/A   Clear
11:12 PM 69.8 °F 68.0 °F 94% 30.11 in 5.0 mi WSW 13.8 mph - N/A   Scattered Clouds
11:21 PM 69.8 °F 68.0 °F 94% 30.11 in 5.0 mi WSW 12.7 mph - N/A   Mostly Cloudy
11:53 PM 70.0 °F 69.1 °F 97% 30.11 in 6.0 mi WSW 13.8 mph - N/A   Overcast